{"data":{"norad_id":38782,"intl_designator":"2012-052A","name":"VRSS-1","alt_names":[],"object_type":"PAYLOAD","status":"ACTIVE","operator":null,"country":"VENZ","launch_date":"2012-09-29","launch_site_code":"JSC","launch_vehicle":null,"mission":null,"orbit_class":"UNKNOWN","rcs_meters":2.365,"size_class":null,"mass_kg":null,"dimensions":null,"purposes":[],"wikipedia_slug":null,"has_3d_model":false,"image_url":null,"decayed_at":null,"tle_current":{"epoch":"2026-05-25T03:55:12.232128Z","epoch_age_seconds":64238,"freshness":"FRESH","line1":"1 38782U 12052A   26145.16333602  .00001220  00000+0  16752-3 0  9998","line2":"2 38782  97.6145 122.6761 0016794 316.6905  43.2986 14.79970175736204","mean_motion":14.79970175,"eccentricity":0.0016794,"inclination_deg":97.6145,"raan_deg":122.6761,"arg_perigee_deg":316.6905,"mean_anomaly_deg":43.2986,"bstar":0.00016752,"rev_number":73620,"period_min":97.299258074576,"perigee_km":617.64979103227,"apogee_km":641.18676770461,"semimajor_km":7007.5552793684,"source":"CELESTRAK","updated_at":"2026-05-25T13:37:55.327080Z"}}}